Hagerstown, MD

7:44 AM EST on January 16, 2018 (GMT -0500)
Hagerstown Regional-Henson

Weather History for KHGR - January, 2012

Change the Weather History Date:

Thursday, January 5, 2012

  Actual Average Record
Temperature  
Mean Temperature 35 °F 31 °F  
Max Temperature 43 °F 38 °F 64 °F (1997)
Min Temperature 27 °F 23 °F 8 °F (2018)
Degree Days  
Heating Degree Days 30 34  
Month to date heating degree days 170  
Since 1 July heating degree days 2134  
Cooling Degree Days 0 0  
Month to date cooling degree days 0  
Year to date cooling degree days 0  
Moisture  
Dew Point 19 °F    
Average Humidity 52    
Maximum Humidity 66    
Minimum Humidity 41    
Precipitation  
Precipitation 0.00 in 0.10 in 0.50 in (2005)
Month to date precipitation 0.46  
Year to date precipitation 0.46  
Sea Level Pressure  
Sea Level Pressure 30.00 in    
Wind  
Wind Speed 4 mph (SW)    
Max Wind Speed 16 mph    
Max Gust Speed 22 mph    
Visibility 10 miles    
Events      
T = Trace of Precipitation, MM = Missing Value Source: NWS Daily Summary

Daily Weather History Graph

Daily Weather History Graph

Search for Another Location

Airport or City:

Trip Planner

Search our weather history database for the weather conditions in past years. The results will help you decide how hot, cold, wet, or windy it might be!

Date:

Astronomy

Jan. 05, 2012 Rise Set
Actual Time 7:32 AM EST 5:00 PM EST
Civil Twilight 7:02 AM EST 5:30 PM EST
Nautical Twilight 6:28 AM EST 6:04 PM EST
Astronomical Twilight 5:55 AM EST 6:36 PM EST
Moon 2:02 PM EST (1/5) 4:15 AM EST (1/5)
Length of Visible Light 10h 28m
Length of Day
9h 28m
Waxing Gibbous, 87% of the Moon is Illuminated
Jan 5
Waxing Gibbous
Jan 9
Full
Jan 16
Last Quarter
Jan 23
New
Jan 30
First Quarter

Hourly Weather History & Observations

Time (EST) Temp. Windchill Dew Point Humidity Pressure Visibility Wind Dir Wind Speed Gust Speed Precip Events Conditions
12:53 AM 27.0 °F - 14.0 °F 58% 30.00 in 10.0 mi Calm Calm - N/A   Overcast
1:53 AM 28.0 °F - 14.0 °F 56% 29.98 in 10.0 mi Calm Calm - N/A   Overcast
2:53 AM 28.0 °F 24.2 °F 15.1 °F 58% 29.96 in 10.0 mi SSE 3.5 mph - N/A   Overcast
3:53 AM 30.9 °F 24.3 °F 17.1 °F 57% 29.96 in 10.0 mi SW 6.9 mph - N/A   Overcast
4:53 AM 30.9 °F 27.5 °F 18.0 °F 59% 29.96 in 10.0 mi SW 3.5 mph - N/A   Overcast
5:53 AM 30.0 °F 26.5 °F 18.0 °F 61% 29.98 in 10.0 mi SSE 3.5 mph - N/A   Overcast
6:53 AM 30.9 °F - 19.0 °F 61% 30.02 in 10.0 mi Calm Calm - N/A   Overcast
7:53 AM 32.0 °F - 21.9 °F 66% 30.04 in 10.0 mi Calm Calm - N/A   Overcast
8:53 AM 35.1 °F - 23.0 °F 61% 30.04 in 10.0 mi Calm Calm - N/A   Overcast
9:53 AM 37.9 °F 30.5 °F 21.9 °F 53% 30.05 in 10.0 mi WNW 11.5 mph - N/A   Overcast
10:53 AM 37.9 °F 28.9 °F 21.9 °F 53% 30.05 in 10.0 mi WNW 16.1 mph 21.9 mph N/A   Mostly Cloudy
11:53 AM 39.9 °F 32.5 °F 21.9 °F 49% 30.01 in 10.0 mi WNW 12.7 mph 18.4 mph N/A   Clear
12:53 PM 41.0 °F 34.7 °F 21.9 °F 47% 29.99 in 10.0 mi WNW 10.4 mph - N/A   Clear
1:53 PM 41.0 °F 35.8 °F 21.0 °F 45% 29.99 in 10.0 mi WNW 8.1 mph - N/A   Clear
2:53 PM 43.0 °F 39.5 °F 21.0 °F 42% 29.98 in 10.0 mi West 5.8 mph - N/A   Clear
3:53 PM 43.0 °F 37.7 °F 21.0 °F 42% 29.98 in 10.0 mi West 9.2 mph - N/A   Clear
4:53 PM 39.9 °F - 19.9 °F 45% 29.99 in 10.0 mi Calm Calm - N/A   Clear
5:53 PM 37.0 °F 33.3 °F 19.9 °F 50% 30.00 in 10.0 mi South 4.6 mph - N/A   Clear
7:53 PM 39.0 °F 35.7 °F 17.1 °F 41% 30.01 in 10.0 mi SSW 4.6 mph - N/A   Clear
8:53 PM 39.9 °F 36.7 °F 18.0 °F 41% 29.99 in 10.0 mi WSW 4.6 mph - N/A   Clear
10:53 PM 36.0 °F 32.1 °F 19.0 °F 50% 29.97 in 10.0 mi SSE 4.6 mph - N/A   Partly Cloudy
11:53 PM 35.1 °F 31.0 °F 18.0 °F 50% 29.96 in 10.0 mi SSE 4.6 mph - N/A   Clear